Regional Weather Roundup
Issued by NWS

Home | Current Version | Previous Version | Graphics & Text | Print | Product List | Glossary Off
Versions: 1 2 3 4 5 6 7 8 9 10 11 12 13 14 15 16 17 18 19 20 21 22 23 24 25 26 27 28 29 30 31 32 33 34 35 36 37 38 39 40 41 42 43 44 45 46 47 48 49 50

000
ASUS43 KLSX 011907
RWRMO

WEATHER SUMMARY FOR MISSOURI
NATIONAL WEATHER SERVICE SPRINGFIELD MO
200 PM CDT WED APR 01 2015

NOTE: "FAIR" INDICATES FEW OR NO CLOUDS BELOW 12,000 FEET WITH NO
       SIGNIFICANT WEATHER AND/OR OBSTRUCTIONS TO VISIBILITY.
       CURRENT SKY AND/OR WEATHER CONDITIONS ARE NOT AVAILABLE FOR
       CHILLICOTHE AND FARMINGTON.

MOZ001>031-035>038-043-044-053-054-012000-
...NORTHERN AND WESTERN MISSOURI...

CITY           SKY/WX    TMP DP  RH WIND       PRES   REMARKS
KANSAS CTY INT PTSUNNY   79  57  46 SE18G28   29.79F
KANSAS C DTWN  LGT RAIN  79  56  45 S16G28    29.80F
LEE`S SUMMIT   PTSUNNY   74  55  51 S16G29    29.82F
ST JOSEPH      SUNNY     80  54  40 SE21      29.76F
CHILLICOTHE      N/A     78  50  37 SE14G25   29.82F
KIRKSVILLE     MOSUNNY   77  44  30 S26       29.87F

$$
MOZ066>068-077>081-088>096-101>105-012000-
...SOUTHWEST MISSOURI...

CITY           SKY/WX    TMP DP  RH WIND       PRES   REMARKS
SPRINGFIELD    TSTM      61  58  90 S30G41    29.93R VSB 1
JOPLIN         TSTM      61  59  93 SE14      29.88F FOG

$$
MOZ032>034-039>042-045>050-055>058-069>072-012000-
...CENTRAL MISSOURI...

CITY           SKY/WX    TMP DP  RH WIND       PRES   REMARKS
COLUMBIA       MOSUNNY   77  44  30 SE17G24   29.88F
JEFFERSON CITY MOSUNNY   75  42  30 SE15G23   29.88F
ROLLA          PTSUNNY   75  41  29 SE20G25   29.91F
SEDALIA        MOSUNNY   80  45  28 SE20      29.87S
WHITEMAN AFB   MOSUNNY   78  51  39 S26       29.85S
WARRENSBURG    MOSUNNY   77  46  33 SE20G25   29.85F
OSAGE BEACH    PTSUNNY   75  43  31 S13       29.91R

$$
MOZ051-052-059>065-012000-
...EAST CENTRAL MISSOURI...

CITY           SKY/WX    TMP DP  RH WIND       PRES   REMARKS
ST LOUIS INTL  PTSUNNY   76  35  22 SE20G26   29.97F
SPIRIT OF STL  PTSUNNY   76  35  22 SE13G20   29.94F
ST CHARLES     MOSUNNY   75  38  26 S16G33    29.95F

$$
MOZ072>076-082>087-097>100-106>115-012000-
...SOUTH CENTRAL AND SOUTHEAST MISSOURI...

CITY           SKY/WX    TMP DP  RH WIND       PRES   REMARKS
CAPE GIRARDEAU SUNNY     74  41  30 SE15      30.01F
FARMINGTON     MOSUNNY   72  37  28 SE14G20   30.02F
POPLAR BLUFF   MOSUNNY   72  46  39 SE12      29.99F
WEST PLAINS    CLOUDY    66  45  46 SE14      29.98S

$$


USA.gov is the U.S. government's official web portal to all federal, state and local government web resources and services.